When you browse on this site, cookies collect data to enhance your experience and personalize the content and advertising you see.
Visit our Privacy Policy to learn more. By continuing to use the site, you agree to this use of cookies and data.
  • In Norway
  • List of Countries
  • For 7 days
  • Water Temperature
  • Satellite Maps
  • Weather Map
  • Weather Widgets
  • user-avatar
    Login

    Hourly Weather Hobart

    Today, 18 December, Tuesday

    Time Temperature Precipitation Wind Pressure Humidity
    00:00 +12°C° 0.1 mm 4 mps 748 mmHg 96%
    01:00 +12°C° 0.1 mm 4 mps 748 mmHg 95%
    02:00 +12°C° 0.1 mm 3 mps 748 mmHg 96%
    03:00 +11°C° 0.1 mm 3 mps 748 mmHg 96%
    04:00 +11°C° 0 mm 3 mps 748 mmHg 97%
    05:00 +11°C° 0 mm 3 mps 749 mmHg 95%
    06:00 +12°C° 0 mm 3 mps 749 mmHg 92%
    07:00 +12°C° 0 mm 3 mps 749 mmHg 89%
    08:00 +13°C° 0 mm 3 mps 750 mmHg 81%
    09:00 +14°C° 0 mm 3 mps 750 mmHg 72%
    10:00 +16°C° 0 mm 3 mps 750 mmHg 67%
    11:00 +17°C° 0 mm 3 mps 750 mmHg 64%
    12:00 +18°C° 0 mm 3 mps 750 mmHg 61%
    13:00 +19°C° 0 mm 3 mps 750 mmHg 58%
    14:00 +18°C° 0 mm 3 mps 750 mmHg 58%
    15:00 +18°C° 0 mm 3 mps 750 mmHg 59%
    16:00 +18°C° 0 mm 2 mps 750 mmHg 60%
    17:00 +17°C° 0 mm 2 mps 750 mmHg 64%
    18:00 +17°C° 0 mm 2 mps 750 mmHg 67%
    19:00 +16°C° 0 mm 2 mps 750 mmHg 71%
    20:00 +14°C° 0 mm 2 mps 751 mmHg 79%
    21:00 +12°C° 0 mm 2 mps 751 mmHg 87%
    22:00 +9°C° 0 mm 2 mps 751 mmHg 95%
    23:00 +9°C° 0 mm 2 mps 751 mmHg 96%

    Tomorrow, 19 December, Wednesday

    Time Temperature Precipitation Wind Pressure Humidity
    00:00 +9°C° 0 mm 2 mps 750 mmHg 96%
    01:00 +8°C° 0 mm 2 mps 750 mmHg 97%
    02:00 +9°C° 0 mm 2 mps 750 mmHg 97%
    03:00 +9°C° 0 mm 2 mps 750 mmHg 96%
    04:00 +9°C° 0 mm 2 mps 750 mmHg 96%
    05:00 +10°C° 0 mm 2 mps 750 mmHg 90%
    06:00 +12°C° 0 mm 2 mps 750 mmHg 85%
    07:00 +12°C° 0 mm 3 mps 750 mmHg 79%
    08:00 +14°C° 0 mm 3 mps 750 mmHg 71%
    09:00 +18°C° 0 mm 3 mps 749 mmHg 62%
    10:00 +20°C° 0 mm 3 mps 749 mmHg 54%
    11:00 +20°C° 0 mm 3 mps 749 mmHg 51%
    12:00 +21°C° 0 mm 4 mps 749 mmHg 49%
    13:00 +22°C° 0 mm 4 mps 748 mmHg 47%
    14:00 +22°C° 0 mm 4 mps 748 mmHg 49%
    15:00 +22°C° 0 mm 4 mps 748 mmHg 51%
    16:00 +21°C° 0 mm 5 mps 747 mmHg 53%
    17:00 +20°C° 0 mm 4 mps 747 mmHg 60%
    18:00 +18°C° 0 mm 4 mps 747 mmHg 67%
    19:00 +17°C° 0 mm 4 mps 747 mmHg 74%
    20:00 +15°C° 0.4 mm 4 mps 747 mmHg 81%
    21:00 +14°C° 0.4 mm 3 mps 747 mmHg 89%
    22:00 +13°C° 0.4 mm 3 mps 747 mmHg 96%
    23:00 +13°C° 1.2 mm 3 mps 746 mmHg 96%

    Day after tomorrow, 20 December, Thursday

    Time Temperature Precipitation Wind Pressure Humidity
    00:00 +14°C° 1.2 mm 2 mps 746 mmHg 97%
    01:00 +14°C° 1.2 mm 2 mps 745 mmHg 97%
    02:00 +14°C° 0.9 mm 2 mps 745 mmHg 97%
    03:00 +13°C° 0.9 mm 2 mps 745 mmHg 97%
    04:00 +13°C° 0.9 mm 1 mps 744 mmHg 97%
    05:00 +14°C° 0.2 mm 1 mps 744 mmHg 97%
    06:00 +14°C° 0.2 mm 1 mps 744 mmHg 96%
    07:00 +14°C° 0.2 mm 2 mps 744 mmHg 95%
    08:00 +16°C° 0.1 mm 2 mps 744 mmHg 90%
    09:00 +17°C° 0.1 mm 2 mps 744 mmHg 85%
    10:00 +18°C° 0.1 mm 2 mps 744 mmHg 80%
    11:00 +18°C° 0.3 mm 3 mps 744 mmHg 82%
    12:00 +17°C° 0.3 mm 4 mps 743 mmHg 83%
    13:00 +16°C° 0.3 mm 5 mps 743 mmHg 85%
    14:00 +16°C° 0.1 mm 5 mps 743 mmHg 81%
    15:00 +16°C° 0.1 mm 5 mps 743 mmHg 77%
    16:00 +16°C° 0.1 mm 5 mps 743 mmHg 73%
    17:00 +15°C° 0 mm 5 mps 743 mmHg 73%
    18:00 +15°C° 0 mm 5 mps 744 mmHg 73%
    19:00 +14°C° 0 mm 5 mps 744 mmHg 72%
    20:00 +12°C° 0 mm 4 mps 744 mmHg 80%
    21:00 +11°C° 0 mm 4 mps 745 mmHg 87%
    22:00 +9°C° 0 mm 3 mps 745 mmHg 95%
    23:00 +9°C° 0 mm 3 mps 745 mmHg 95%

    21 December, Friday

    Time Temperature Precipitation Wind Pressure Humidity
    00:00 +9°C° 0 mm 3 mps 745 mmHg 95%
    01:00 +9°C° 0 mm 2 mps 745 mmHg 96%
    02:00 +8°C° 0 mm 2 mps 744 mmHg 97%
    03:00 +8°C° 0 mm 2 mps 744 mmHg 97%
    04:00 +8°C° 0 mm 2 mps 744 mmHg 98%
    05:00 +9°C° 0 mm 2 mps 744 mmHg 90%
    06:00 +12°C° 0 mm 2 mps 745 mmHg 82%
    07:00 +14°C° 0 mm 2 mps 745 mmHg 74%
    08:00 +16°C° 0.1 mm 2 mps 745 mmHg 68%
    09:00 +17°C° 0.1 mm 2 mps 744 mmHg 62%
    10:00 +19°C° 0.1 mm 3 mps 744 mmHg 56%
    11:00 +18°C° 0.2 mm 3 mps 744 mmHg 64%
    12:00 +17°C° 0.2 mm 3 mps 744 mmHg 73%
    13:00 +14°C° 0.2 mm 3 mps 744 mmHg 81%
    14:00 +14°C° 0.2 mm 3 mps 744 mmHg 82%
    15:00 +14°C° 0.2 mm 3 mps 744 mmHg 83%
    16:00 +13°C° 0.2 mm 3 mps 744 mmHg 84%
    17:00 +13°C° 0.1 mm 3 mps 744 mmHg 84%
    18:00 +13°C° 0.1 mm 2 mps 745 mmHg 85%
    19:00 +13°C° 0.1 mm 2 mps 745 mmHg 85%
    20:00 +12°C° 0 mm 2 mps 745 mmHg 88%
    21:00 +10°C° 0 mm 2 mps 746 mmHg 91%
    22:00 +10°C° 0 mm 1 mps 746 mmHg 94%
    23:00 +9°C° 0.1 mm 2 mps 746 mmHg 94%

    22 December, Saturday

    Time Temperature Precipitation Wind Pressure Humidity
    00:00 +9°C° 0.1 mm 2 mps 746 mmHg 95%
    01:00 +8°C° 0.1 mm 2 mps 746 mmHg 95%
    02:00 +8°C° 0 mm 2 mps 746 mmHg 96%
    03:00 +7°C° 0 mm 2 mps 746 mmHg 96%
    04:00 +6°C° 0 mm 2 mps 746 mmHg 96%
    05:00 +8°C° 0 mm 2 mps 746 mmHg 91%
    06:00 +10°C° 0 mm 2 mps 747 mmHg 86%
    07:00 +12°C° 0 mm 2 mps 747 mmHg 81%
    08:00 +13°C° 0 mm 2 mps 747 mmHg 74%
    09:00 +14°C° 0 mm 2 mps 748 mmHg 66%
    10:00 +16°C° 0 mm 2 mps 748 mmHg 59%
    11:00 +16°C° 0 mm 2 mps 748 mmHg 57%
    12:00 +17°C° 0 mm 2 mps 748 mmHg 55%
    13:00 +18°C° 0 mm 2 mps 748 mmHg 53%
    14:00 +18°C° 0 mm 2 mps 747 mmHg 53%
    15:00 +18°C° 0 mm 2 mps 747 mmHg 52%
    16:00 +18°C° 0 mm 2 mps 747 mmHg 52%
    17:00 +17°C° 0 mm 2 mps 748 mmHg 58%
    18:00 +16°C° 0 mm 2 mps 748 mmHg 64%
    19:00 +15°C° 0 mm 2 mps 748 mmHg 70%
    20:00 +14°C° 0 mm 2 mps 749 mmHg 76%
    21:00 +12°C° 0 mm 2 mps 749 mmHg 83%
    22:00 +10°C° 0 mm 2 mps 749 mmHg 90%
    23:00 +9°C° 0 mm 2 mps 749 mmHg 92%

    23 December, Sunday

    Time Temperature Precipitation Wind Pressure Humidity
    00:00 +8°C° 0 mm 2 mps 749 mmHg 94%
    01:00 +7°C° 0 mm 2 mps 748 mmHg 96%
    02:00 +7°C° 0 mm 2 mps 748 mmHg 95%
    03:00 +7°C° 0 mm 3 mps 748 mmHg 94%
    04:00 +7°C° 0 mm 3 mps 747 mmHg 93%
    05:00 +9°C° 0 mm 3 mps 748 mmHg 84%
    06:00 +11°C° 0 mm 3 mps 748 mmHg 74%
    07:00 +13°C° 0 mm 3 mps 748 mmHg 65%
    08:00 +14°C° 0 mm 3 mps 748 mmHg 62%
    09:00 +17°C° 0 mm 3 mps 747 mmHg 59%
    10:00 +18°C° 0 mm 4 mps 747 mmHg 56%
    11:00 +20°C° 0 mm 4 mps 747 mmHg 50%
    12:00 +22°C° 0 mm 4 mps 747 mmHg 43%
    13:00 +25°C° 0 mm 4 mps 746 mmHg 37%
    14:00 +25°C° 0 mm 5 mps 746 mmHg 37%
    15:00 +25°C° 0 mm 5 mps 746 mmHg 37%
    16:00 +23°C° 0 mm 5 mps 745 mmHg 36%
    17:00 +22°C° 0 mm 5 mps 746 mmHg 41%
    18:00 +20°C° 0 mm 4 mps 746 mmHg 46%
    19:00 +19°C° 0 mm 4 mps 746 mmHg 51%
    20:00 +17°C° 0 mm 4 mps 746 mmHg 58%
    21:00 +15°C° 0 mm 4 mps 746 mmHg 65%
    22:00 +13°C° 0 mm 3 mps 746 mmHg 71%
    23:00 +13°C° 0 mm 3 mps 746 mmHg 72%
    Show more